Вернуться в каталог

STARLINK-3095

АктивенСвязьVLEO
NORAD 49160·PAYLOAD·🇺🇸 United States

Запущен Sep 14, 2021 с Vandenberg Space Force Base

Loading…

Ближайшие Пролёты (ближайшие 24 часа)

TLE

СвежийSource: CelesTrak SupGP

Эпоха: Sep 15, 2026, 01:29 UTC

1 49160C 21082AG  26258.06229167 -.00012334  00000+0 -10337-2 0  2587
2 49160  70.0020 176.9620 0003121 272.7313  21.8439 14.98335205    12

Отслеживайте STARLINK-3095 в реальном времени с AllMySat

Download on the App Store